Temp
65 65 65 65 65 65 65 65 65 65 65 65 65 65 65 66 66 65 59 67 68 70 69 69 68 66 66 63 63 59 50 46 50 51 53 60 58 62 62 59 60 60 58 60 65
65 64 65 65 65 64 65 65 64 64 65 65 65 65 65 65 63 60 69 71 71 71 68 64 61 63 59 60 60 55 47 51 56 55 54 57 57 57 58 58 57 57 59 61 63
64 64 64 64 64 64 64 64 64 64 64 64 65 65 64 64 55 57 70 71 71 70 67 66 64 60 55 56 55 52 50 56 58 59 59 58 57 58 56 54 60 59 59 59 59
63 63 63 64 63 64 64 64 63 63 64 64 64 64 63 60 45 62 68 70 70 69 65 62 60 54 52 52 57 49 56 57 60 60 59 56 58 57 56 61 63 63 61 60 60
62 62 62 63 63 64 64 64 63 63 63 64 64 64 60 53 54 66 66 67 67 65 63 60 56 54 50 52 54 51 54 58 60 59 58 59 57 57 58 64 63 63 61 60 61
61 61 61 62 63 64 64 64 63 63 63 64 64 62 55 48 66 66 65 64 64 65 60 60 57 58 53 52 52 53 55 56 57 58 58 57 55 57 59 60 60 59 59 59 60
61 60 61 61 62 62 63 63 63 63 63 64 63 59 55 54 63 64 64 62 63 62 62 61 60 57 55 51 55 54 50 53 53 56 57 57 52 52 61 58 60 60 59 58 59
60 60 60 60 61 61 62 62 62 63 63 63 63 55 47 64 61 62 62 59 62 61 60 58 59 57 53 54 51 48 48 42 51 54 57 55 46 54 60 56 58 59 58 57 59
59 59 59 60 60 61 61 62 61 62 63 63 55 50 45 62 56 61 61 57 57 58 58 61 57 54 54 51 44 44 40 40 46 50 52 51 44 54 56 56 53 53 56 57 58
58 59 59 60 60 60 60 61 61 61 60 60 55 47 49 49 56 58 58 59 55 54 53 53 52 48 48 47 40 44 38 42 42 46 47 46 47 50 53 53 52 51 52 55 57
59 58 59 59 60 60 58 54 49 48 52 45 46 46 48 54 59 55 57 55 54 54 47 51 44 43 47 49 48 46 40 40 39 46 44 43 44 48 52 50 50 52 53 55 59
58 58 59 59 60 60 55 48 51 52 44 51 49 51 52 56 48 51 57 50 49 46 51 45 42 46 52 49 48 45 43 42 46 49 48 44 44 50 52 53 56 55 57 59 60
58 57 58 58 59 56 51 52 57 54 44 46 48 48 49 52 47 48 54 50 45 45 46 42 44 49 47 43 42 43 41 43 43 45 44 43 44 48 55 55 58 59 59 61 61
57 57 57 58 52 50 48 54 53 56 36 39 42 47 49 51 44 53 55 52 46 44 43 43 49 46 43 42 43 39 44 44 42 41 35 42 34 45 47 47 51 54 56 58 58
57 57 57 58 48 47 50 54 53 49 23 42 42 55 49 46 45 46 51 47 42 43 43 40 42 44 41 44 45 42 45 42 41 38 39 41 35 37 41 46 51 52 54 52 57
56 56 57 52 48 50 54 54 50 32 23 35 43 41 41 43 42 48 47 49 47 43 42 41 45 45 45 46 47 45 42 40 41 40 32 39 38 40 44 47 46 49 51 50 50
55 56 54 52 44 52 53 47 31 25 36 34 37 41 40 40 40 44 41 41 38 34 36 41 42 45 45 43 46 45 39 32 30 30 29 37 36 41 49 48 50 50 47 48 49
54 55 54 52 50 52 49 36 24 32 32 40 40 41 37 40 41 38 40 38 41 36 36 35 31 42 46 45 42 40 43 34 25 26 27 32 31 39 49 54 56 52 52 49 48
54 48 47 48 52 51 40 27 28 31 35 36 39 35 36 40 40 40 37 39 42 41 33 34 34 40 43 45 46 39 37 44 32 25 26 31 34 43 46 45 44 47 48 48 49
44 44 44 50 52 46 34 30 28 39 42 40 33 38 32 36 37 38 38 42 39 45 42 37 27 37 41 44 45 44 45 34 34 27 25 28 29 36 40 42 43 44 46 46 48
43 36 42 49 49 37 28 27 32 41 43 39 36 36 39 36 38 36 37 38 45 42 44 38 35 32 41 39 39 39 35 36 37 33 27 22 29 39 43 44 44 46 46 47 46
41 30 44 48 34 32 30 32 41 38 44 41 38 35 37 39 38 38 37 41 45 45 39 41 34 25 35 39 41 42 39 37 31 31 32 31 33 42 42 42 46 45 46 47 46
34 35 45 44 27 29 32 33 36 37 39 38 37 40 39 39 35 41 42 42 43 44 41 41 36 28 29 37 39 36 39 40 36 33 30 29 33 46 44 43 45 45 44 46 44
34 29 36 37 35 32 28 30 32 39 40 41 39 40 38 38 38 37 40 40 43 45 46 47 34 31 29 30 36 33 36 38 35 31 29 33 33 40 40 41 43 44 43 42 42
34 29 33 29 30 31 32 33 31 32 40 41 37 37 39 34 34 32 36 37 40 45 43 42 30 31 32 33 34 35 35 37 34 37 31 33 33 39 39 41 43 45 44 41 40
31 31 32 29 33 30 32 29 31 33 35 35 34 38 39 34 38 35 37 39 37 40 42 42 31 32 26 33 33 34 37 37 38 37 33 34 34 42 43 43 40 41 39 38 37
37 38 32 33 31 29 30 32 32 37 38 41 36 35 36 41 46 45 46 46 43 41 41 39 33 31 29 33 31 26 32 37 39 40 37 32 38 41 40 39 37 36 36 34 34
MSLP
1015.14 1015.49 1015.85 1016.23 1016.60 1016.87 1017.14 1017.47 1017.78 1018.01 1018.21 1018.35 1018.46 1018.65 1018.74 1018.74 1018.80 1018.84 1018.58 1017.79 1017.65 1017.46 1017.26 1017.12 1016.90 1016.92 1016.67 1016.86 1016.84 1017.13 1018.14 1018.43 1017.82 1017.25 1016.83 1016.36 1016.16 1016.11 1016.07 1016.17 1016.45 1016.87 1017.24 1017.41 1017.37
1014.67 1015.05 1015.38 1015.74 1016.07 1016.50 1016.82 1017.14 1017.51 1017.82 1018.01 1018.24 1018.39 1018.58 1018.74 1018.87 1018.93 1018.57 1017.76 1017.56 1017.56 1017.59 1017.68 1017.73 1017.74 1017.58 1017.50 1017.43 1017.39 1017.71 1018.31 1017.97 1017.19 1016.77 1016.63 1016.46 1016.33 1016.42 1016.45 1016.58 1016.75 1016.99 1017.26 1017.49 1017.72
1014.23 1014.59 1014.92 1015.25 1015.65 1016.03 1016.47 1016.85 1017.21 1017.57 1017.82 1018.09 1018.29 1018.50 1018.61 1018.79 1018.98 1017.75 1017.02 1017.19 1017.40 1017.70 1017.89 1018.03 1018.10 1018.16 1018.10 1017.87 1017.92 1018.05 1018.07 1017.62 1017.05 1016.69 1016.50 1016.44 1016.51 1016.48 1016.55 1016.70 1016.76 1017.08 1017.33 1017.88 1018.24
1013.65 1014.08 1014.46 1014.89 1015.10 1015.64 1016.04 1016.49 1016.85 1017.27 1017.65 1017.90 1018.14 1018.25 1018.48 1018.83 1018.59 1017.02 1016.91 1016.84 1017.11 1017.65 1017.96 1018.16 1018.35 1018.49 1018.54 1018.41 1018.12 1018.31 1017.75 1017.57 1017.03 1016.71 1016.65 1016.68 1016.64 1016.72 1016.59 1016.35 1016.44 1016.83 1017.11 1017.75 1018.12
1013.07 1013.54 1014.02 1014.49 1014.85 1015.08 1015.70 1016.08 1016.51 1016.94 1017.37 1017.67 1017.99 1018.16 1018.52 1018.71 1017.79 1016.91 1016.81 1016.93 1017.47 1017.83 1018.07 1018.42 1018.69 1018.67 1018.72 1018.58 1018.50 1018.37 1017.92 1017.66 1017.32 1017.12 1016.96 1016.87 1016.90 1017.00 1016.64 1016.34 1016.47 1016.54 1016.99 1017.41 1017.76
1012.35 1012.86 1013.50 1013.98 1014.40 1014.79 1015.34 1015.72 1016.08 1016.61 1017.13 1017.41 1017.80 1018.14 1018.51 1018.00 1016.99 1016.85 1017.03 1017.31 1017.59 1017.93 1018.24 1018.55 1018.69 1018.68 1018.84 1018.81 1018.83 1018.55 1018.30 1018.03 1017.62 1017.39 1017.30 1017.30 1017.09 1017.25 1016.47 1016.34 1016.55 1016.74 1017.07 1017.49 1017.64
1011.65 1012.36 1012.89 1013.42 1013.97 1014.44 1014.89 1015.43 1015.74 1016.33 1016.84 1017.27 1017.69 1018.19 1017.99 1016.98 1016.76 1016.76 1017.10 1017.51 1017.73 1017.91 1018.23 1018.65 1018.69 1018.83 1018.76 1018.94 1018.72 1018.67 1018.74 1018.26 1017.89 1017.64 1017.40 1017.40 1017.61 1017.26 1016.49 1016.69 1016.94 1017.14 1017.03 1017.19 1017.11
1011.14 1011.68 1012.45 1012.97 1013.51 1014.04 1014.60 1014.88 1015.37 1016.10 1016.68 1017.22 1017.62 1018.27 1017.58 1016.64 1016.79 1017.13 1017.28 1017.84 1018.03 1018.39 1018.56 1018.95 1018.91 1018.99 1019.04 1019.06 1019.06 1019.16 1019.18 1019.00 1018.29 1018.02 1017.64 1017.85 1017.42 1017.28 1017.02 1017.29 1017.35 1017.21 1017.03 1016.97 1016.62
1010.25 1010.96 1011.67 1012.38 1012.96 1013.49 1014.17 1014.71 1015.37 1015.95 1016.51 1017.15 1018.02 1018.30 1017.76 1016.45 1016.78 1017.12 1017.41 1018.02 1018.46 1018.91 1019.05 1019.25 1019.26 1019.34 1019.38 1019.49 1019.70 1019.56 1019.44 1019.46 1019.14 1018.85 1018.50 1018.42 1017.96 1017.73 1017.62 1017.75 1017.74 1017.52 1017.39 1016.94 1016.32
1009.52 1010.28 1010.94 1011.80 1012.40 1013.10 1013.84 1014.68 1015.36 1016.09 1016.72 1017.28 1017.95 1018.57 1017.22 1016.43 1016.64 1017.11 1017.62 1017.99 1018.51 1019.06 1019.55 1019.62 1019.78 1019.54 1019.47 1019.45 1018.86 1019.75 1019.91 1019.64 1019.63 1019.56 1019.16 1018.92 1018.31 1018.38 1017.93 1017.96 1017.79 1017.18 1016.95 1016.70 1016.05
1008.63 1009.37 1010.31 1011.11 1011.77 1012.55 1013.71 1015.04 1016.10 1016.33 1015.87 1015.86 1016.36 1016.50 1016.14 1016.16 1016.29 1017.01 1017.46 1018.17 1018.65 1019.23 1019.30 1019.52 1019.81 1018.59 1019.24 1019.42 1019.80 1019.89 1020.03 1020.08 1020.14 1020.09 1019.89 1019.49 1018.66 1018.34 1017.95 1017.63 1017.24 1016.88 1016.44 1015.91 1015.29
1007.82 1008.72 1009.71 1010.57 1011.24 1011.98 1013.19 1013.71 1013.49 1013.77 1014.98 1015.84 1016.06 1016.32 1016.20 1016.09 1016.71 1017.10 1017.35 1018.31 1018.80 1018.84 1019.20 1019.56 1018.08 1019.13 1019.33 1019.58 1019.93 1020.00 1020.24 1020.28 1020.63 1020.46 1020.31 1019.84 1018.02 1017.74 1017.82 1016.96 1016.55 1016.07 1015.44 1014.71 1014.17
1006.97 1007.91 1009.10 1010.04 1010.94 1011.98 1012.51 1012.90 1013.11 1013.59 1014.91 1015.66 1015.98 1016.22 1016.31 1016.35 1016.40 1016.70 1017.23 1017.60 1018.16 1018.68 1018.70 1018.68 1018.26 1018.69 1019.29 1019.79 1020.09 1020.02 1020.08 1020.50 1020.86 1020.79 1020.61 1020.38 1018.09 1017.11 1016.02 1015.83 1015.32 1014.85 1014.36 1013.40 1012.85
1006.00 1007.31 1008.43 1009.85 1011.53 1011.60 1012.30 1012.90 1013.46 1013.77 1014.62 1015.12 1015.39 1015.34 1016.04 1016.19 1016.58 1016.17 1016.59 1017.26 1018.12 1018.26 1018.98 1019.01 1018.35 1018.70 1019.31 1019.37 1019.72 1019.91 1020.08 1020.54 1020.89 1021.27 1020.80 1020.39 1017.29 1016.30 1015.87 1015.34 1014.85 1014.14 1013.58 1012.74 1012.50
1005.39 1006.77 1007.87 1009.67 1010.53 1011.20 1011.94 1012.70 1013.62 1014.35 1013.78 1013.64 1014.60 1014.70 1015.09 1015.85 1015.86 1016.27 1016.33 1017.31 1017.49 1018.08 1018.87 1018.12 1018.14 1018.46 1018.96 1018.05 1019.56 1019.48 1019.89 1020.45 1020.86 1020.98 1020.95 1019.90 1019.34 1015.19 1015.67 1014.50 1013.86 1013.65 1012.97 1012.66 1012.15
1005.41 1006.26 1007.46 1009.74 1010.65 1011.14 1011.84 1012.74 1014.00 1014.20 1012.16 1013.09 1013.09 1014.00 1015.06 1015.35 1015.79 1016.34 1016.76 1017.13 1017.58 1018.15 1018.26 1018.14 1018.11 1018.06 1017.83 1018.31 1019.00 1019.50 1020.12 1020.51 1020.66 1020.82 1020.00 1017.36 1019.20 1015.06 1014.63 1014.02 1013.35 1013.15 1013.12 1012.76 1012.29
1005.42 1006.44 1007.50 1009.32 1010.37 1010.87 1011.78 1012.91 1013.18 1011.20 1012.37 1012.34 1012.32 1013.03 1013.68 1014.55 1015.79 1016.00 1016.48 1017.12 1017.23 1018.16 1018.05 1018.18 1018.07 1018.00 1018.09 1018.36 1018.75 1019.33 1019.95 1020.22 1020.17 1019.78 1018.48 1017.51 1018.33 1014.65 1012.52 1013.15 1013.36 1013.46 1013.22 1013.19 1012.91
1005.71 1006.78 1007.64 1008.42 1009.77 1010.82 1011.71 1012.05 1010.11 1010.70 1011.37 1011.58 1011.87 1012.59 1012.97 1013.71 1014.96 1015.53 1015.93 1016.42 1016.69 1016.75 1017.14 1017.56 1017.87 1017.79 1017.84 1017.74 1017.96 1018.46 1018.89 1018.78 1018.69 1019.18 1018.70 1017.93 1016.82 1013.60 1012.48 1012.10 1012.39 1012.89 1013.19 1013.50 1013.41
1006.25 1007.38 1008.30 1008.97 1009.21 1010.57 1011.49 1010.40 1009.37 1009.68 1010.61 1010.57 1011.47 1011.97 1012.53 1013.18 1013.58 1014.69 1014.96 1015.02 1015.16 1015.47 1016.11 1017.02 1017.35 1017.17 1017.08 1017.37 1017.74 1017.85 1017.89 1017.97 1018.66 1019.66 1019.29 1017.81 1015.97 1013.94 1012.61 1012.60 1012.66 1012.87 1013.34 1013.96 1014.17
1006.09 1007.29 1008.13 1008.71 1009.28 1010.65 1010.90 1009.98 1010.48 1010.07 1009.47 1009.93 1010.30 1010.78 1011.30 1012.23 1012.86 1013.66 1014.15 1013.96 1014.51 1014.78 1015.41 1016.38 1017.45 1017.30 1017.23 1017.52 1017.34 1017.20 1017.92 1018.47 1018.21 1018.36 1017.95 1017.05 1016.04 1013.45 1012.93 1012.97 1013.04 1013.69 1014.06 1014.71 1014.86
1006.36 1007.55 1008.03 1008.81 1009.68 1010.39 1009.15 1009.61 1010.19 1009.75 1009.48 1009.29 1009.70 1010.17 1010.47 1010.94 1011.37 1012.14 1012.49 1013.22 1013.57 1014.31 1015.42 1016.05 1016.69 1017.82 1017.60 1017.11 1016.90 1017.49 1017.79 1017.78 1017.59 1017.11 1017.24 1017.20 1015.26 1014.21 1013.69 1013.03 1013.18 1013.93 1014.47 1015.13 1015.54
1006.46 1007.93 1008.10 1008.47 1009.33 1009.41 1009.45 1009.75 1008.90 1009.58 1009.71 1009.71 1009.22 1009.52 1009.56 1009.94 1010.62 1011.22 1011.42 1011.90 1012.54 1013.53 1014.50 1015.33 1016.73 1017.60 1017.02 1016.74 1016.78 1016.91 1016.97 1017.32 1017.32 1016.83 1017.11 1016.93 1015.34 1014.67 1014.06 1013.95 1014.05 1014.92 1016.17 1016.73 1016.89
1006.49 1007.40 1007.89 1008.27 1008.58 1009.21 1009.27 1009.62 1009.66 1009.38 1009.27 1009.71 1009.22 1008.95 1009.02 1009.46 1010.54 1010.77 1011.44 1011.94 1012.38 1013.13 1013.54 1014.66 1015.87 1016.94 1017.19 1017.13 1016.88 1016.65 1016.50 1016.34 1016.87 1017.37 1017.11 1016.86 1016.00 1015.38 1015.57 1016.35 1015.84 1016.72 1018.02 1018.84 1019.29
1006.85 1007.76 1007.98 1008.76 1008.65 1009.13 1009.14 1009.27 1009.38 1009.40 1009.16 1009.11 1009.28 1009.09 1009.10 1009.45 1009.78 1010.41 1011.14 1011.99 1012.25 1012.76 1013.26 1013.98 1014.94 1015.26 1015.07 1014.90 1014.95 1015.94 1015.88 1016.22 1016.52 1016.71 1016.30 1016.13 1015.99 1016.03 1016.04 1017.27 1017.62 1017.43 1018.88 1019.63 1020.10
1006.14 1006.91 1006.65 1007.45 1008.52 1008.75 1008.91 1008.81 1008.73 1008.90 1008.71 1008.90 1009.31 1009.10 1008.47 1009.09 1009.89 1009.91 1010.69 1011.91 1012.37 1012.33 1013.03 1013.44 1014.30 1015.20 1015.28 1015.05 1014.98 1014.93 1015.04 1015.59 1015.78 1015.23 1015.83 1015.35 1015.74 1015.94 1016.17 1016.69 1018.11 1018.19 1018.98 1019.95 1020.50
1005.79 1006.53 1007.00 1006.53 1007.61 1008.74 1008.08 1008.03 1008.14 1008.23 1008.08 1008.21 1008.89 1008.58 1008.05 1007.92 1007.82 1008.55 1009.70 1010.57 1011.18 1012.54 1012.79 1013.42 1014.15 1015.21 1015.76 1015.71 1015.51 1015.35 1015.04 1015.00 1015.15 1015.51 1015.75 1015.82 1015.80 1015.59 1015.82 1016.60 1018.06 1018.79 1019.69 1020.77 1021.30
1005.38 1005.81 1005.94 1006.75 1007.23 1008.07 1007.37 1007.27 1007.15 1007.46 1007.65 1007.36 1008.35 1009.26 1008.58 1007.71 1007.79 1008.23 1008.97 1009.56 1009.95 1010.79 1011.70 1012.83 1014.06 1015.61 1016.20 1016.12 1016.18 1015.71 1013.68 1014.37 1014.70 1015.12 1015.35 1015.74 1015.21 1015.87 1017.11 1018.41 1019.17 1019.98 1020.94 1022.08 1022.81
Wind_Speed
16 18 18 16 15 14 13 12 10 9 9 5 4 3 3 3 1 1 4 4 1 6 8 6 5 7 4 4 4 3 5 2 3 2 2 5 4 4 1 2 3 1 1 3 7
17 16 18 19 17 16 15 14 12 10 9 8 7 5 3 2 2 7 6 8 5 4 5 6 6 8 4 5 4 4 3 8 3 2 2 1 2 2 3 3 3 2 1 3 7
19 16 17 19 17 17 15 14 13 11 10 9 8 7 5 4 2 7 13 14 9 4 2 1 3 2 2 2 1 2 4 5 3 2 1 1 0 2 2 3 6 4 4 4 4
19 17 16 16 18 16 17 15 14 12 10 10 9 9 8 3 8 1 5 13 9 5 2 1 0 2 0 2 1 1 3 3 2 1 0 1 1 2 3 6 3 5 4 7 9
21 19 17 16 16 17 17 16 15 14 12 10 9 9 6 3 7 2 2 2 6 5 6 4 3 3 3 2 2 3 3 2 4 2 4 2 5 5 6 9 7 4 6 11 11
21 19 18 16 16 16 17 17 16 14 13 11 10 8 4 13 5 5 5 7 5 5 4 5 5 5 3 3 4 1 3 5 3 4 3 4 4 6 6 4 4 2 7 7 10
22 21 18 19 16 15 16 17 16 15 12 11 10 4 8 11 1 4 6 3 3 4 6 3 2 4 4 1 2 1 4 6 3 3 5 5 6 8 10 3 7 9 8 9 13
22 21 22 19 18 17 15 15 15 15 13 11 10 3 7 5 4 4 3 4 6 3 3 2 1 2 2 1 0 3 3 4 2 4 5 6 9 3 7 5 10 11 9 8 11
25 23 21 20 18 17 15 13 14 15 14 10 4 4 6 5 6 5 3 6 5 4 4 3 2 2 2 3 2 3 6 5 4 3 3 5 3 5 6 7 9 8 9 10 11
25 23 23 22 21 17 16 13 10 10 8 4 3 3 5 5 5 7 3 8 5 7 4 3 2 3 3 7 14 10 5 4 6 2 2 5 12 8 8 7 9 10 9 11 11
26 24 24 23 22 21 15 6 6 6 12 8 9 3 4 2 6 6 6 6 5 4 10 4 6 16 10 4 2 2 3 5 1 0 2 5 11 13 10 9 11 12 11 11 16
27 27 24 22 22 23 13 7 14 3 9 6 2 7 1 4 6 6 11 9 8 11 11 5 22 4 5 5 7 6 8 7 1 1 1 6 20 15 12 18 17 16 17 19 16
29 27 24 24 21 16 16 17 7 3 4 12 3 8 4 5 5 13 15 7 5 11 15 13 0 13 10 5 11 13 17 10 7 2 4 3 21 22 17 16 19 16 17 20 21
29 27 24 21 13 8 10 11 5 2 4 7 10 6 5 4 5 6 13 8 3 16 9 11 8 8 5 13 10 15 7 7 8 4 10 7 17 15 10 10 10 12 15 17 16
30 28 25 20 8 9 7 10 6 5 13 13 11 4 10 10 8 8 2 3 11 8 8 6 10 14 10 17 9 10 8 11 7 6 3 14 9 5 3 19 18 13 12 10 16
24 29 28 13 5 7 8 11 6 10 15 9 13 16 11 10 2 5 6 6 2 6 2 3 1 7 10 6 14 3 5 2 3 5 11 27 10 20 15 17 6 4 7 8 6
21 23 23 14 10 11 12 7 12 17 11 9 14 18 25 13 10 12 14 14 10 10 14 7 9 3 1 6 5 8 6 4 7 8 10 5 10 24 20 8 12 8 2 4 5
20 21 15 9 12 13 12 9 15 17 8 6 13 23 22 18 16 9 17 18 14 4 8 15 8 14 7 8 7 14 17 8 9 5 4 1 11 15 14 18 18 9 7 4 4
21 9 8 5 12 10 10 15 11 12 11 11 14 20 15 13 12 14 15 23 18 16 12 11 9 1 3 6 11 5 15 14 3 2 1 5 8 11 9 8 1 9 7 6 5
6 8 9 12 14 10 12 15 4 6 16 9 15 15 18 22 14 19 19 16 11 21 2 7 2 3 2 3 5 8 4 9 6 10 8 6 7 10 5 5 6 7 8 5 5
6 6 5 13 10 9 9 9 8 7 10 15 10 13 18 17 23 20 14 5 21 17 7 6 4 2 3 9 10 6 6 5 4 6 5 2 7 4 9 8 14 10 8 7 8
7 5 9 12 10 3 11 7 7 5 12 9 4 4 14 24 24 20 23 16 12 17 22 7 5 4 8 2 3 2 9 8 2 1 1 1 6 10 9 2 4 6 4 7 12
8 3 7 9 11 5 4 7 5 6 9 10 7 6 5 17 14 15 17 7 10 17 21 12 6 4 3 2 3 5 5 5 5 3 7 3 3 8 17 18 16 16 16 14 12
4 5 4 8 4 8 7 6 7 6 7 5 6 5 6 10 2 18 13 5 13 13 12 14 5 10 13 6 6 8 10 11 6 4 6 6 3 1 6 11 10 12 9 8 11
2 4 4 13 16 11 5 7 17 6 11 15 6 11 13 8 11 7 9 5 7 13 11 12 8 4 1 1 3 4 9 16 17 16 8 7 12 14 6 5 2 2 6 9 10
5 5 2 4 9 12 12 12 18 15 13 12 14 11 10 10 16 17 12 12 11 8 13 4 3 4 2 3 4 6 11 13 18 8 5 6 6 7 8 8 9 9 8 8 10
2 1 5 10 11 15 17 14 16 21 10 10 17 5 13 15 17 9 9 11 10 18 22 14 8 5 6 4 2 7 15 15 14 12 10 12 9 8 7 9 9 11 11 10 9
Wind_Direction
222 223 219 209 204 201 201 198 202 208 213 214 200 191 223 207 218 276 258 237 213 327 345 325 10 346 12 356 11 113 66 156 199 213 266 337 33 5 321 129 71 360 157 301 154
222 218 218 216 204 201 199 198 195 202 209 204 198 182 180 198 253 236 243 252 263 302 1 23 357 347 7 353 360 82 116 208 219 194 181 18 71 310 25 354 317 328 18 32 124
217 214 212 214 213 202 199 197 194 195 202 206 198 177 161 151 24 242 216 216 220 209 206 327 338 2 9 356 332 153 199 216 241 227 247 64 62 345 94 268 228 234 226 144 166
218 211 208 207 207 209 202 193 191 192 197 202 201 175 162 145 216 204 274 226 191 171 135 111 231 0 318 224 359 285 224 222 262 242 281 241 333 313 192 233 153 265 204 170 188
212 211 207 205 204 203 207 200 189 189 191 196 198 176 114 178 241 272 69 237 133 154 178 164 169 157 199 237 348 200 275 208 295 291 283 320 233 230 241 257 280 277 174 194 203
216 204 205 202 202 201 205 205 193 189 190 194 185 174 130 224 204 176 110 124 155 168 167 152 202 207 215 218 173 262 291 280 272 248 252 227 258 146 258 243 234 209 221 224 219
209 205 203 203 201 200 200 203 198 188 187 195 171 145 233 224 86 139 138 157 157 173 182 188 216 178 165 294 215 215 314 316 221 225 244 167 288 226 249 285 275 271 256 234 230
205 196 200 198 203 200 196 193 196 193 186 192 167 107 234 216 149 81 118 64 78 50 92 39 34 152 189 305 101 196 172 250 245 211 267 130 257 270 289 316 280 280 276 259 252
198 194 197 196 197 197 193 188 199 194 185 158 108 152 235 143 178 177 130 132 91 53 55 89 87 199 116 156 173 224 240 222 286 33 276 183 247 230 330 326 294 279 283 284 269
199 195 194 197 192 187 185 181 201 187 175 74 56 113 277 192 147 143 118 129 116 116 71 110 173 203 169 181 221 224 238 241 205 298 339 276 270 267 281 284 275 283 277 280 274
193 186 193 195 191 181 168 140 152 203 188 181 175 229 127 174 130 168 143 105 108 163 198 191 203 220 206 205 255 42 257 234 83 292 347 272 280 278 287 284 276 277 277 269 266
187 184 184 186 188 179 155 188 189 150 173 207 168 205 105 160 147 166 146 160 182 201 197 182 231 154 192 188 221 228 257 253 274 275 222 309 289 286 280 277 271 265 265 260 263
177 175 175 181 179 170 178 187 154 111 146 199 174 196 174 152 180 190 177 150 160 191 193 214 206 165 181 182 215 231 235 242 254 213 269 9 278 281 273 248 266 263 257 257 251
168 168 166 172 162 156 185 173 92 149 185 173 195 223 186 141 241 184 187 162 204 202 168 222 209 158 170 221 188 238 174 183 202 192 254 149 280 274 293 269 257 270 261 260 255
165 163 161 161 130 177 140 146 128 71 217 171 163 164 160 172 145 207 213 122 184 172 164 209 165 183 200 216 169 244 164 197 208 231 318 239 253 285 314 285 278 260 271 272 260
173 163 156 158 117 161 134 133 153 196 209 169 151 163 145 194 182 113 153 67 118 180 204 204 260 167 208 184 184 121 97 132 177 222 239 249 216 273 259 251 271 265 314 322 319
176 171 154 154 186 152 141 150 209 214 146 170 167 170 180 170 166 176 176 181 179 187 209 179 210 165 227 175 155 174 150 235 230 202 242 245 192 242 263 252 248 263 342 324 10
181 172 166 172 138 155 163 204 217 198 185 167 167 180 184 162 191 181 172 196 213 186 188 210 213 196 179 211 178 198 202 213 231 220 237 52 213 245 238 263 240 227 178 294 81
172 168 168 157 147 159 172 212 203 178 151 163 153 177 186 179 171 174 190 201 198 192 172 195 223 118 193 174 174 169 223 230 267 93 174 219 276 293 252 268 269 185 149 183 108
147 159 183 154 157 171 201 215 159 231 173 168 175 177 179 185 175 186 185 202 208 198 208 177 107 206 167 114 250 204 352 211 202 220 226 241 263 245 331 245 171 157 158 165 103
118 144 174 156 154 198 218 224 204 192 244 174 167 177 192 182 194 190 191 204 187 186 161 137 102 222 189 202 194 175 207 255 243 189 175 224 253 252 272 197 177 170 148 145 78
141 178 169 146 181 186 207 203 196 159 209 256 137 165 193 191 196 198 199 196 172 163 193 163 138 183 203 118 132 278 206 184 244 186 222 219 261 348 339 294 114 111 73 46 66
154 85 158 159 198 199 166 158 229 145 186 219 211 192 179 187 193 196 204 161 155 170 174 161 195 176 312 263 187 218 196 160 116 117 218 253 251 20 41 35 56 68 44 37 34
124 146 164 180 200 190 169 188 181 212 191 166 220 228 141 169 165 191 203 155 176 177 161 154 167 198 212 201 143 198 196 191 175 190 174 213 221 8 23 36 32 69 93 79 53
139 209 173 173 195 188 167 181 197 193 217 174 225 233 177 164 179 178 167 130 185 181 175 169 200 182 294 310 152 184 178 194 206 221 195 197 188 190 191 138 136 174 69 68 58
137 157 128 207 175 200 196 182 197 192 183 201 217 210 197 166 190 187 158 176 175 186 176 180 184 125 230 185 191 234 229 215 221 226 254 166 250 211 188 157 152 133 107 77 54
126 27 116 164 173 186 204 198 197 199 211 196 194 212 237 222 199 175 175 165 160 180 189 173 140 169 215 152 141 290 214 202 213 217 206 202 217 146 156 140 106 95 82 57 42